Waarnemingen

Advertentie
Mijn weer
Oostende Airport, België (6407): temperatuur & dauwpunt: 04.04.2020 21:00:00 - 10.04.2020 21:00:00 (CEST)Oostende Airport, België (6407): windsnelheid & windstoten: 04.04.2020 21:00:00 - 10.04.2020 21:00:00 (CEST)Oostende Airport, België (6407): windrichting: 04.04.2020 21:00:00 - 10.04.2020 21:00:00 (CEST)Oostende Airport, België (6407): luchtdruk: 04.04.2020 21:00:00 - 10.04.2020 21:00:00 (CEST)Oostende Airport, België (6407): zicht: 04.04.2020 21:00:00 - 10.04.2020 21:00:00 (CEST)
Datum & Tijd tt [°C] td [°C] ff [km/u] ff [kn] fx [km/u] fx [kn] dd ppp [hPa] vv [km]
10.04.2020 21:00:00 15,0 7,0 16 9 - - ONO - 10
10.04.2020 20:00:00 15,4 8,0 15 8 - - NO 1024,7 10
10.04.2020 19:00:00 16,4 7,9 15 8 40 21 NNO 1024,7 10
10.04.2020 18:00:00 16,7 8,2 18 10 22 12 NNO 1024,7 10
10.04.2020 17:00:00 17,4 8,8 18 10 - - NNO 1024,8 10
10.04.2020 16:00:00 17,2 8,5 22 12 29 16 NO 1025,4 10
10.04.2020 15:00:00 18,5 9,4 16 9 25 14 NNO 1025,8 10
10.04.2020 14:00:00 17,2 8,7 18 10 - - NNO 1026,3 10
10.04.2020 13:00:00 18,5 8,9 14 8 25 14 ONO 1026,6 14
10.04.2020 12:00:00 16,7 8,5 11 6 18 10 ONO 1026,8 10
10.04.2020 11:00:00 14,4 8,1 9 5 - - O 1026,9 10
10.04.2020 10:00:00 12,3 7,7 15 8 25 14 O 1026,8 10
10.04.2020 09:00:00 10,2 6,9 16 9 25 14 O 1026,8 8
10.04.2020 08:00:00 8,7 6,4 18 10 - - O 1026,5 7
10.04.2020 07:00:00 8,6 6,4 18 10 25 14 ONO 1026,2 8
10.04.2020 06:00:00 9,6 6,7 21 11 25 14 ONO 1026,2 8
10.04.2020 05:00:00 9,3 5,6 15 8 - - ONO 1026,2 10
10.04.2020 04:00:00 10,2 5,5 16 9 25 14 O 1026,3 10
10.04.2020 03:00:00 10,2 5,3 16 9 22 12 O 1026,5 10
10.04.2020 02:00:00 10,9 5,3 15 8 - - ONO 1026,8 10
10.04.2020 01:00:00 11,9 6,0 15 8 22 12 ONO 1026,8 10
10.04.2020 00:00:00 11,7 5,3 15 8 25 14 ONO 1026,8 10
09.04.2020 23:00:00 12,6 5,2 18 10 - - ONO 1026,6 10
09.04.2020 22:00:00 12,2 5,5 15 8 29 16 NO 1026,5 10
09.04.2020 21:00:00 12,6 5,0 22 12 32 18 NO 1026,2 10
09.04.2020 20:00:00 13,6 5,3 21 11 - - NO 1025,9 10
09.04.2020 19:00:00 14,0 6,0 22 12 32 18 NO 1025,7 10
09.04.2020 18:00:00 14,9 7,0 21 11 36 19 NO 1025,7 10
09.04.2020 17:00:00 14,8 7,5 24 13 - - NO 1025,8 10
09.04.2020 16:00:00 16,6 7,5 24 13 32 18 NNO 1026,0 10
09.04.2020 15:00:00 20,4 8,0 18 10 36 19 ONO 1026,0 10
09.04.2020 14:00:00 20,6 7,0 18 10 - - ONO 1026,0 10
09.04.2020 13:00:00 19,4 7,4 16 9 25 14 O 1026,1 10
09.04.2020 12:00:00 17,9 7,4 18 10 25 14 O 1026,2 10
09.04.2020 11:00:00 15,8 8,3 16 9 - - O 1026,0 9
09.04.2020 10:00:00 14,3 8,4 15 8 22 12 O 1025,8 7
09.04.2020 09:00:00 12,6 7,8 11 6 18 10 ONO 1025,3 7
09.04.2020 08:00:00 11,3 7,8 15 8 - - ONO 1024,8 4,8
09.04.2020 07:00:00 9,4 6,8 11 6 14 8 NO 1024,3 4,5
09.04.2020 06:00:00 10,0 7,3 13 7 14 8 ONO 1024,2 4,0
09.04.2020 05:00:00 9,6 7,2 8 4 - - ONO 1024,0 3,2
09.04.2020 04:00:00 9,1 7,2 4 2 14 8 NNO 1024,0 3,2
09.04.2020 03:00:00 8,8 7,6 11 6 14 8 NNO 1024,1 4,0
09.04.2020 02:00:00 9,0 7,0 5 3 - - NO 1024,2 4,0
09.04.2020 01:00:00 9,2 6,9 8 4 14 8 ONO 1024,4 6
09.04.2020 00:00:00 10,9 7,6 9 5 14 8 ONO 1024,1 6
08.04.2020 23:00:00 10,8 7,2 9 5 - - ONO 1024,1 6
08.04.2020 22:00:00 11,5 7,3 13 7 22 12 NO 1024,0 8
08.04.2020 21:00:00 12,3 7,3 16 9 29 16 NO 1023,8 8
08.04.2020 20:00:00 12,0 7,2 21 11 - - NO 1023,7 7
08.04.2020 19:00:00 14,1 7,6 24 13 32 18 NO 1023,6 7
08.04.2020 18:00:00 15,3 8,3 18 10 25 14 NNO 1023,5 7
08.04.2020 17:00:00 17,7 8,8 15 8 - - NNO 1023,8 7
08.04.2020 16:00:00 17,1 9,1 16 9 25 14 NNO 1024,2 7
08.04.2020 15:00:00 16,0 9,0 18 10 25 14 NNO 1024,5 7
08.04.2020 14:00:00 16,0 8,4 15 8 - - N 1024,9 8
08.04.2020 13:00:00 16,2 8,2 11 6 14 8 NNW 1025,2 8
08.04.2020 12:00:00 16,8 9,3 9 5 11 6 NNW 1025,4 8
08.04.2020 11:00:00 16,8 9,6 2 1 - - - 1025,3 7
08.04.2020 10:00:00 14,4 9,4 9 5 11 6 OZO 1025,2 7
08.04.2020 09:00:00 12,6 8,4 8 4 11 6 NO 1025,5 8
08.04.2020 08:00:00 10,0 7,1 8 4 - - ONO 1025,3 7
08.04.2020 07:00:00 10,3 6,7 8 4 11 6 ONO 1025,1 8
08.04.2020 06:00:00 10,4 6,9 5 3 11 6 ONO 1025,2 9
08.04.2020 05:00:00 12,0 7,4 5 3 - - ONO 1025,5 9
08.04.2020 04:00:00 12,5 7,3 11 6 14 8 ONO 1026,0 10
08.04.2020 03:00:00 13,0 7,0 9 5 11 6 ONO 1026,5 10
08.04.2020 02:00:00 11,0 6,3 9 5 - - O 1027,0 10
08.04.2020 01:00:00 12,4 6,1 9 5 14 8 ONO 1027,2 10
08.04.2020 00:00:00 11,3 6,0 13 7 18 10 O 1027,4 10
07.04.2020 23:00:00 13,0 5,6 13 7 - - ONO 1027,7 10
07.04.2020 22:00:00 13,4 6,1 11 6 18 10 ONO 1027,9 10
07.04.2020 21:00:00 13,5 5,9 15 8 18 10 ONO 1027,7 10
07.04.2020 20:00:00 14,7 6,1 13 7 - - NO 1027,9 10
07.04.2020 19:00:00 16,0 5,8 15 8 25 14 NO 1028,3 10
07.04.2020 18:00:00 17,5 6,2 13 7 25 14 NO 1028,6 10
07.04.2020 17:00:00 17,5 6,3 16 9 - - NNO 1029,0 10
07.04.2020 16:00:00 18,9 5,3 13 7 25 14 O 1029,4 10
07.04.2020 15:00:00 18,5 5,4 16 9 40 21 ZO 1030,3 10
07.04.2020 14:00:00 17,6 5,3 16 9 - - OZO 1030,7 10
07.04.2020 13:00:00 16,9 4,6 22 12 29 16 O 1031,2 10
07.04.2020 12:00:00 15,6 7,8 13 7 18 10 O 1031,5 10
07.04.2020 11:00:00 12,5 7,8 9 5 - - O 1031,5 10
07.04.2020 10:00:00 9,5 7,0 5 3 7 4 OZO 1031,3 10
07.04.2020 09:00:00 5,9 4,6 4 2 7 4 - 1031,1 8
07.04.2020 08:00:00 2,9 1,4 2 1 - - O 1030,5 6
07.04.2020 07:00:00 2,3 1,6 4 2 7 4 - 1030,0 6
07.04.2020 06:00:00 2,5 2,3 5 3 7 4 Z 1029,6 7
07.04.2020 05:00:00 3,5 3,1 4 2 - - Z 1029,1 7
07.04.2020 04:00:00 3,7 3,3 4 2 7 4 ZW 1028,6 8
07.04.2020 03:00:00 4,7 4,1 5 3 7 4 Z 1028,4 10
07.04.2020 02:00:00 5,5 4,5 4 2 - - ZZW 1028,0 10
07.04.2020 01:00:00 5,7 4,5 9 5 11 6 ZZW 1027,5 10
07.04.2020 00:00:00 6,0 4,7 8 4 14 8 ZW 1026,9 10
06.04.2020 23:00:00 7,2 5,3 13 7 - - ZZW 1026,4 10
06.04.2020 22:00:00 7,7 6,1 9 5 22 12 ZW 1025,9 10
06.04.2020 21:00:00 9,0 6,9 15 8 29 16 W 1024,9 10
06.04.2020 20:00:00 10,3 7,5 18 10 - - W 1023,9 10
06.04.2020 19:00:00 14,3 9,2 21 11 36 19 WZW 1022,9 10
06.04.2020 18:00:00 13,9 10,5 24 13 32 18 ZZW 1022,1 10
06.04.2020 17:00:00 12,7 10,4 21 11 - - ZZW 1021,7 10
06.04.2020 16:00:00 12,7 10,0 21 11 29 16 ZW 1021,3 10
06.04.2020 15:00:00 13,3 6,0 21 11 36 19 ZW 1020,8 10
06.04.2020 14:00:00 14,4 4,4 28 15 - - ZW 1019,8 10
06.04.2020 13:00:00 15,7 4,9 26 14 40 21 ZZW 1018,6 10
06.04.2020 12:00:00 16,3 4,6 28 15 36 19 ZZW 1017,7 10
06.04.2020 11:00:00 14,7 3,8 21 11 - - ZZW 1017,0 10
06.04.2020 10:00:00 14,0 4,0 15 8 29 16 Z 1016,1 10
06.04.2020 09:00:00 11,0 3,2 18 10 25 14 Z 1015,4 10
06.04.2020 08:00:00 7,8 2,6 13 7 - - ZZO 1014,9 10
06.04.2020 07:00:00 8,0 2,2 11 6 18 10 ZZO 1014,3 10
06.04.2020 06:00:00 7,7 2,6 13 7 22 12 ZZO 1014,0 10
06.04.2020 05:00:00 8,2 2,8 16 9 - - ZZO 1013,9 10
06.04.2020 04:00:00 8,2 3,0 13 7 25 14 ZZO 1014,1 10
06.04.2020 03:00:00 10,2 3,4 21 11 25 14 ZZO 1014,1 10
06.04.2020 02:00:00 10,2 3,5 15 8 - - ZZO 1014,1 10
06.04.2020 01:00:00 10,7 3,5 11 6 14 8 ZO 1014,1 10
06.04.2020 00:00:00 11,8 3,0 8 4 14 8 ZO 1014,2 10
05.04.2020 23:00:00 12,6 2,7 9 5 - - ZO 1014,4 10
05.04.2020 22:00:00 13,5 3,2 15 8 18 10 OZO 1014,6 10
05.04.2020 21:00:00 14,8 4,0 15 8 18 10 ZO 1014,7 10
05.04.2020 20:00:00 17,1 5,4 13 7 - - ZZO 1015,0 10
05.04.2020 19:00:00 19,7 3,9 24 13 40 21 ZZO 1015,0 10
05.04.2020 18:00:00 20,4 3,6 26 14 40 21 ZZO 1015,3 10
05.04.2020 17:00:00 20,8 3,4 24 13 - - ZZO 1015,8 10
05.04.2020 16:00:00 20,6 4,0 24 13 50 27 Z 1016,3 10
05.04.2020 15:00:00 19,7 3,7 28 15 43 23 ZZO 1016,7 10
05.04.2020 14:00:00 18,6 4,0 28 15 - - ZZO 1017,5 10
05.04.2020 13:00:00 16,9 4,0 29 16 40 21 ZZO 1018,0 10
05.04.2020 12:00:00 15,1 2,9 24 13 36 19 ZZO 1018,7 10
05.04.2020 11:00:00 13,0 2,2 21 11 - - ZO 1019,3 10
05.04.2020 10:00:00 10,4 2,1 15 8 22 12 ZO 1019,9 10
05.04.2020 09:00:00 7,3 1,1 13 7 18 10 OZO 1020,1 10
05.04.2020 08:00:00 5,0 0,0 11 6 - - O 1020,1 10
05.04.2020 07:00:00 4,6 -0,4 11 6 18 10 O 1019,8 10
05.04.2020 06:00:00 5,0 0,0 13 7 18 10 O 1020,0 10
05.04.2020 05:00:00 5,3 0,1 13 7 - - O 1020,5 10
05.04.2020 04:00:00 5,9 0,2 11 6 14 8 OZO 1020,9 10
05.04.2020 03:00:00 6,7 0,7 13 7 14 8 OZO 1021,2 10
05.04.2020 02:00:00 6,5 1,2 13 7 - - O 1021,7 10
05.04.2020 01:00:00 7,6 1,3 13 7 18 10 OZO 1021,8 10
05.04.2020 00:00:00 7,7 1,5 11 6 14 8 OZO 1021,8 10
04.04.2020 23:00:00 7,7 2,3 9 5 - - O 1021,9 10
04.04.2020 22:00:00 9,8 2,4 13 7 14 8 OZO 1022,0 10
04.04.2020 21:00:00 10,1 3,3 9 5 14 8 O 1021,9 10

tt = temperatuur
td = dauwpunt
ff = windsnelheid
fx = windstoten
dd = windrichting
ppp = luchtdruk
vv = zicht

Weerstations in de omgeving